Precipitable_Water
0.94 0.95 0.97 0.99 0.96 0.97 1.00 1.02 0.98 1.00 1.02 0.99 0.96 0.92 0.88 0.82 0.80 0.73 0.56 0.62 0.63 0.70 0.72 0.76 0.86 0.74 0.66 0.57 0.56 0.49 0.30 0.21 0.23 0.24 0.29 0.42 0.45 0.53 0.50 0.39 0.45 0.49 0.53 0.59 0.80
0.96 0.99 0.95 0.88 0.87 0.93 0.96 1.01 1.01 1.03 1.04 1.04 1.01 0.90 0.84 0.81 0.66 0.62 0.74 0.76 0.76 0.70 0.55 0.59 0.64 0.73 0.52 0.50 0.48 0.38 0.28 0.24 0.32 0.33 0.30 0.39 0.43 0.48 0.45 0.39 0.36 0.40 0.54 0.66 0.76
0.95 0.89 0.83 0.84 0.89 1.04 1.08 1.06 0.99 1.01 1.04 1.00 0.91 0.85 0.82 0.77 0.56 0.57 0.78 0.78 0.71 0.67 0.57 0.65 0.70 0.67 0.54 0.48 0.43 0.37 0.27 0.32 0.35 0.39 0.39 0.38 0.41 0.46 0.41 0.36 0.39 0.37 0.46 0.59 0.61
0.82 0.80 0.77 0.80 0.87 0.93 0.97 1.03 1.04 1.01 0.96 0.94 0.91 0.82 0.79 0.70 0.38 0.58 0.69 0.67 0.65 0.62 0.53 0.57 0.61 0.54 0.53 0.39 0.40 0.32 0.34 0.35 0.35 0.39 0.41 0.38 0.43 0.40 0.40 0.36 0.41 0.43 0.47 0.48 0.52
0.70 0.71 0.75 0.78 0.79 0.84 0.84 0.88 0.90 0.87 0.89 0.91 0.82 0.80 0.77 0.58 0.55 0.62 0.63 0.59 0.58 0.55 0.47 0.50 0.52 0.51 0.47 0.46 0.39 0.34 0.34 0.35 0.36 0.37 0.39 0.41 0.38 0.37 0.35 0.39 0.40 0.41 0.41 0.44 0.46
0.71 0.71 0.69 0.71 0.75 0.77 0.77 0.77 0.78 0.79 0.78 0.81 0.77 0.85 0.69 0.49 0.62 0.60 0.60 0.57 0.53 0.49 0.50 0.53 0.52 0.57 0.49 0.51 0.39 0.37 0.35 0.32 0.32 0.33 0.34 0.31 0.32 0.33 0.30 0.35 0.35 0.36 0.37 0.39 0.40
0.70 0.70 0.70 0.72 0.67 0.67 0.69 0.71 0.73 0.73 0.71 0.77 0.81 0.81 0.61 0.59 0.66 0.64 0.61 0.55 0.55 0.52 0.49 0.56 0.59 0.55 0.52 0.49 0.47 0.37 0.28 0.30 0.29 0.30 0.29 0.30 0.24 0.23 0.30 0.32 0.31 0.33 0.35 0.37 0.40
0.68 0.71 0.70 0.69 0.67 0.66 0.63 0.67 0.70 0.69 0.68 0.77 0.80 0.75 0.62 0.73 0.72 0.65 0.60 0.54 0.56 0.56 0.57 0.57 0.61 0.57 0.51 0.54 0.46 0.33 0.29 0.21 0.27 0.29 0.28 0.26 0.18 0.23 0.28 0.28 0.29 0.31 0.33 0.36 0.38
0.67 0.69 0.69 0.68 0.68 0.65 0.62 0.64 0.65 0.67 0.71 0.76 0.70 0.66 0.56 0.76 0.63 0.63 0.59 0.48 0.50 0.53 0.55 0.57 0.56 0.51 0.48 0.45 0.39 0.34 0.21 0.21 0.23 0.28 0.26 0.24 0.19 0.23 0.29 0.29 0.28 0.30 0.32 0.35 0.37
0.62 0.63 0.66 0.69 0.65 0.63 0.63 0.63 0.61 0.66 0.68 0.71 0.69 0.61 0.74 0.59 0.68 0.63 0.62 0.53 0.45 0.47 0.47 0.48 0.45 0.40 0.43 0.40 0.30 0.29 0.24 0.22 0.21 0.27 0.27 0.24 0.23 0.26 0.28 0.28 0.26 0.28 0.31 0.33 0.34
0.54 0.58 0.60 0.63 0.63 0.63 0.63 0.57 0.51 0.54 0.57 0.52 0.51 0.60 0.66 0.71 0.75 0.69 0.67 0.55 0.47 0.41 0.33 0.40 0.33 0.27 0.33 0.40 0.37 0.33 0.29 0.24 0.26 0.29 0.26 0.24 0.24 0.25 0.25 0.25 0.26 0.29 0.30 0.31 0.32
0.48 0.52 0.55 0.56 0.61 0.62 0.60 0.50 0.55 0.60 0.49 0.62 0.60 0.57 0.67 0.71 0.56 0.70 0.77 0.60 0.46 0.37 0.40 0.37 0.30 0.37 0.36 0.36 0.34 0.32 0.29 0.27 0.29 0.30 0.29 0.27 0.26 0.29 0.31 0.31 0.33 0.32 0.31 0.30 0.31
0.50 0.50 0.51 0.55 0.60 0.56 0.57 0.58 0.75 0.68 0.47 0.50 0.58 0.59 0.63 0.68 0.55 0.66 0.76 0.65 0.44 0.33 0.35 0.31 0.32 0.34 0.32 0.31 0.30 0.31 0.28 0.29 0.30 0.32 0.31 0.26 0.22 0.25 0.28 0.32 0.33 0.32 0.31 0.31 0.31
0.49 0.48 0.46 0.49 0.45 0.56 0.54 0.69 0.72 0.72 0.42 0.44 0.47 0.49 0.53 0.58 0.55 0.69 0.73 0.66 0.53 0.36 0.36 0.31 0.33 0.31 0.33 0.36 0.38 0.31 0.38 0.32 0.27 0.24 0.18 0.24 0.15 0.19 0.24 0.26 0.29 0.29 0.28 0.29 0.30
0.45 0.44 0.43 0.41 0.32 0.41 0.48 0.62 0.61 0.51 0.20 0.38 0.44 0.54 0.50 0.47 0.46 0.51 0.61 0.63 0.51 0.42 0.40 0.32 0.32 0.29 0.28 0.32 0.37 0.33 0.37 0.32 0.30 0.27 0.25 0.24 0.21 0.22 0.27 0.27 0.25 0.24 0.25 0.24 0.24
0.44 0.39 0.39 0.35 0.34 0.37 0.41 0.46 0.45 0.27 0.19 0.30 0.37 0.40 0.40 0.40 0.39 0.43 0.48 0.59 0.58 0.45 0.43 0.40 0.41 0.38 0.34 0.37 0.37 0.37 0.32 0.32 0.32 0.29 0.22 0.26 0.24 0.21 0.22 0.20 0.20 0.22 0.24 0.24 0.22
0.43 0.34 0.33 0.33 0.23 0.36 0.36 0.33 0.22 0.18 0.29 0.27 0.32 0.35 0.35 0.34 0.35 0.40 0.39 0.41 0.40 0.35 0.31 0.37 0.36 0.39 0.38 0.30 0.34 0.33 0.27 0.23 0.22 0.21 0.19 0.27 0.21 0.18 0.19 0.19 0.18 0.18 0.20 0.24 0.25
0.49 0.41 0.43 0.38 0.37 0.38 0.35 0.23 0.16 0.20 0.21 0.28 0.30 0.33 0.29 0.30 0.32 0.34 0.32 0.32 0.39 0.39 0.29 0.25 0.24 0.34 0.38 0.33 0.30 0.29 0.26 0.24 0.19 0.18 0.15 0.20 0.14 0.14 0.16 0.17 0.18 0.22 0.24 0.23 0.24
0.49 0.43 0.42 0.43 0.41 0.39 0.29 0.13 0.13 0.17 0.23 0.23 0.25 0.22 0.23 0.28 0.29 0.31 0.33 0.31 0.35 0.34 0.26 0.18 0.19 0.35 0.40 0.36 0.27 0.20 0.18 0.22 0.16 0.17 0.13 0.13 0.13 0.12 0.15 0.19 0.20 0.21 0.20 0.20 0.22
0.40 0.35 0.37 0.46 0.42 0.35 0.20 0.15 0.16 0.21 0.21 0.20 0.16 0.21 0.19 0.20 0.19 0.20 0.21 0.26 0.25 0.25 0.26 0.21 0.17 0.26 0.28 0.30 0.29 0.24 0.23 0.15 0.14 0.09 0.08 0.09 0.10 0.08 0.13 0.17 0.19 0.19 0.17 0.17 0.18
0.43 0.30 0.44 0.46 0.40 0.21 0.13 0.14 0.18 0.23 0.24 0.19 0.15 0.14 0.15 0.14 0.16 0.17 0.18 0.20 0.22 0.19 0.22 0.21 0.19 0.20 0.27 0.21 0.18 0.19 0.16 0.15 0.13 0.10 0.07 0.06 0.08 0.17 0.20 0.23 0.20 0.18 0.20 0.19 0.21
0.42 0.21 0.50 0.47 0.16 0.16 0.13 0.16 0.19 0.18 0.22 0.19 0.19 0.17 0.16 0.15 0.14 0.13 0.13 0.14 0.20 0.19 0.15 0.18 0.15 0.13 0.15 0.21 0.22 0.17 0.14 0.13 0.09 0.09 0.13 0.11 0.10 0.21 0.21 0.20 0.20 0.21 0.22 0.24 0.25
0.32 0.30 0.50 0.38 0.14 0.14 0.17 0.16 0.19 0.17 0.18 0.18 0.18 0.20 0.19 0.17 0.16 0.19 0.21 0.26 0.25 0.21 0.18 0.19 0.14 0.11 0.13 0.18 0.21 0.17 0.17 0.15 0.15 0.15 0.11 0.10 0.11 0.24 0.23 0.23 0.23 0.22 0.24 0.28 0.31
0.30 0.20 0.27 0.29 0.26 0.18 0.16 0.16 0.15 0.21 0.18 0.19 0.18 0.20 0.19 0.18 0.19 0.17 0.19 0.24 0.26 0.23 0.25 0.23 0.18 0.15 0.13 0.14 0.21 0.18 0.19 0.21 0.18 0.15 0.14 0.14 0.15 0.18 0.21 0.22 0.24 0.25 0.29 0.32 0.35
0.29 0.24 0.28 0.20 0.22 0.23 0.22 0.19 0.16 0.16 0.20 0.21 0.17 0.17 0.18 0.15 0.17 0.17 0.21 0.24 0.28 0.29 0.26 0.24 0.17 0.20 0.21 0.23 0.24 0.23 0.22 0.22 0.21 0.20 0.16 0.16 0.17 0.19 0.24 0.25 0.29 0.33 0.35 0.36 0.36
0.24 0.23 0.27 0.24 0.26 0.23 0.22 0.20 0.18 0.19 0.19 0.17 0.18 0.21 0.20 0.17 0.18 0.17 0.20 0.22 0.22 0.28 0.25 0.25 0.17 0.20 0.18 0.23 0.24 0.22 0.25 0.26 0.25 0.24 0.23 0.24 0.23 0.31 0.34 0.36 0.37 0.40 0.40 0.39 0.40
0.37 0.39 0.29 0.22 0.23 0.20 0.18 0.19 0.20 0.23 0.23 0.24 0.22 0.21 0.20 0.22 0.26 0.27 0.28 0.28 0.27 0.26 0.24 0.24 0.21 0.21 0.18 0.25 0.26 0.21 0.26 0.27 0.27 0.29 0.28 0.24 0.29 0.35 0.35 0.37 0.38 0.38 0.40 0.41 0.42
Wind_Speed
12 12 14 14 13 12 12 12 14 18 19 20 24 28 30 31 33 34 35 36 37 37 36 35 34 30 28 25 23 21 17 17 16 14 13 12 12 11 10 11 10 10 10 10 10
12 13 13 12 12 13 12 12 12 14 16 18 20 23 28 29 31 34 33 35 37 37 36 35 34 31 28 27 24 22 20 20 16 15 14 13 12 12 11 11 12 12 11 11 11
13 12 13 11 10 7 5 10 12 13 12 13 17 20 23 27 28 31 33 35 35 37 37 35 34 33 29 27 25 24 22 19 17 15 15 14 13 13 12 13 13 14 13 13 13
13 12 12 10 8 5 3 4 8 13 11 12 13 17 20 24 26 28 29 32 34 36 36 36 35 33 29 28 27 22 21 20 17 15 15 15 13 13 15 14 13 15 14 14 14
14 12 11 10 8 6 4 3 4 8 9 9 10 12 16 21 23 26 27 30 33 35 36 36 35 32 30 28 25 23 22 19 18 16 15 15 15 15 16 16 15 14 15 15 16
14 13 11 10 8 7 4 0 2 4 6 8 8 11 12 15 19 22 24 28 32 34 35 36 34 31 28 26 25 23 21 20 19 18 16 16 16 15 14 15 15 15 16 16 17
15 14 12 10 9 7 5 2 1 2 4 6 7 11 11 10 14 18 21 25 29 33 33 34 33 30 28 25 24 22 20 19 19 18 17 16 17 18 16 15 16 17 17 18 19
15 16 14 10 9 8 6 3 2 2 5 8 11 9 12 8 9 13 18 23 25 30 32 31 32 28 27 24 21 20 19 20 20 18 17 16 18 15 16 17 18 19 19 20 20
17 16 16 12 10 9 7 5 5 6 9 10 10 11 8 7 10 10 15 20 23 27 29 29 29 27 25 23 20 20 20 21 19 18 18 18 18 16 16 17 19 20 21 22 23
17 17 16 15 11 10 9 7 9 11 10 9 10 10 8 6 11 11 13 18 22 25 27 26 25 25 24 23 23 22 20 19 19 18 18 19 22 20 20 20 22 23 24 24 25
16 16 15 16 13 9 9 9 9 9 10 7 7 6 7 6 12 12 11 15 21 23 25 23 22 24 24 22 20 20 19 18 18 17 18 20 22 24 22 23 25 25 25 26 26
14 15 15 15 14 10 8 8 8 9 7 5 6 4 6 9 10 13 12 14 17 20 22 20 21 22 21 19 18 17 17 17 17 17 17 19 24 25 23 24 24 25 26 27 26
13 14 15 15 15 12 9 7 8 6 4 3 3 3 7 8 11 11 12 12 14 18 18 21 21 20 20 17 16 15 16 16 17 18 18 21 24 22 20 19 22 25 25 25 25
11 12 12 13 12 12 12 9 7 5 4 2 2 3 6 6 6 13 12 14 13 18 18 17 17 19 18 16 15 15 15 15 15 15 18 17 21 20 21 23 22 23 23 21 20
10 10 10 11 9 9 9 8 6 3 4 3 3 4 6 8 10 8 11 12 14 15 15 16 16 16 16 16 14 13 12 12 14 14 15 17 16 20 19 21 21 19 18 18 18
9 9 9 9 8 8 7 7 8 9 4 5 4 4 7 7 9 9 12 14 15 14 12 15 16 15 16 15 14 13 12 12 13 13 15 17 15 20 17 14 15 15 16 17 17
10 10 10 9 8 7 7 7 9 9 10 6 7 8 8 7 8 9 11 14 14 12 13 11 13 14 14 14 13 13 12 13 14 13 16 14 14 18 15 16 16 15 16 17 17
10 11 12 11 10 9 9 9 10 7 7 9 9 9 8 7 8 8 11 12 10 12 12 13 12 15 14 14 15 15 14 14 15 14 15 14 17 15 14 14 15 16 16 16 17
9 11 12 12 11 11 11 11 7 7 8 8 8 9 8 9 9 9 9 11 10 10 11 10 10 11 12 13 13 13 14 13 11 14 14 16 17 18 13 13 14 15 16 18 19
6 8 10 10 10 10 11 9 9 8 8 7 6 6 6 6 7 7 7 7 8 8 8 10 8 10 11 11 11 13 12 10 12 12 14 14 14 13 14 13 14 15 17 18 18
3 5 7 7 7 9 8 7 7 7 7 6 6 6 5 6 5 5 5 4 6 6 7 8 9 10 10 13 13 13 13 12 12 13 13 14 15 12 13 14 15 16 17 19 20
4 4 5 3 5 5 5 4 5 5 5 5 5 5 4 4 4 4 4 4 5 6 6 7 8 9 10 11 12 13 14 14 13 16 16 15 18 14 15 13 14 18 22 25 26
8 7 6 5 4 4 3 3 3 2 2 2 2 2 2 2 2 2 2 2 3 4 5 6 6 7 9 10 12 14 16 16 15 15 18 14 16 13 13 17 21 26 28 27 27
11 11 10 8 8 6 6 6 5 5 4 3 3 2 1 1 2 3 3 4 4 5 6 8 9 11 13 14 13 16 17 18 18 16 18 22 22 22 22 26 30 30 28 28 26
14 14 13 13 12 11 10 10 9 9 8 8 7 7 6 6 7 7 7 8 9 10 10 10 13 14 18 19 19 21 21 21 23 25 24 27 26 28 27 29 29 27 25 24 25
18 17 17 17 17 15 14 14 14 13 12 12 12 11 12 12 12 13 12 14 14 13 14 16 17 17 20 21 24 26 27 28 30 32 34 34 34 29 27 25 24 24 23 24 25
22 21 20 20 19 18 19 18 17 16 16 16 16 15 16 18 19 19 19 19 19 18 19 19 19 20 24 22 24 26 29 29 25 26 28 30 28 25 24 24 23 25 25 27 27
Wind_Direction
328 323 316 309 299 287 265 251 239 234 236 237 235 232 230 229 226 224 222 221 218 217 216 216 214 214 214 215 216 216 220 223 225 214 226 220 220 228 232 228 236 245 245 256 233
338 332 328 320 309 293 262 245 238 234 236 237 236 232 230 228 225 222 221 219 216 215 213 212 211 210 213 214 216 216 218 223 224 223 225 222 225 224 233 235 241 247 252 251 246
344 344 343 338 333 329 264 241 232 228 233 239 237 234 230 225 223 220 218 216 215 213 211 209 209 209 212 212 215 217 219 222 226 227 225 221 225 233 233 244 242 245 250 249 253
348 348 349 351 349 339 309 254 238 226 234 242 241 235 226 216 216 214 215 215 213 209 207 206 206 208 209 211 213 216 221 221 224 227 222 222 227 238 240 249 255 251 247 252 254
354 354 354 355 358 349 321 260 229 222 237 235 239 221 209 209 215 213 216 214 208 206 205 204 205 206 209 210 211 216 218 221 224 225 227 231 237 243 251 251 256 252 249 252 257
11 6 3 6 6 10 11 339 210 225 226 214 201 197 192 198 212 213 213 208 204 202 201 202 204 207 206 209 212 214 216 220 226 229 233 237 244 249 255 247 252 250 252 256 260
15 18 15 14 16 18 21 16 203 171 185 174 182 178 182 194 197 203 203 202 199 198 198 200 202 206 204 206 210 208 215 223 227 231 235 241 250 248 253 252 252 255 257 261 264
25 24 22 26 20 19 16 30 111 141 145 153 147 149 166 155 179 187 191 190 192 194 194 197 197 202 203 202 209 212 216 220 227 232 236 238 250 251 255 251 254 259 263 264 267
29 29 27 23 26 28 34 71 100 115 132 135 150 151 161 149 147 158 172 182 187 186 189 191 195 198 201 201 209 216 217 222 230 231 240 240 253 255 258 256 261 265 266 267 271
27 28 26 30 35 37 46 96 102 115 121 131 143 155 153 158 160 146 155 168 175 179 183 188 194 196 200 203 211 212 218 224 229 236 240 246 256 258 261 263 266 269 269 269 271
24 25 26 28 29 44 68 93 108 116 102 121 148 145 164 158 162 153 151 162 169 175 183 187 188 194 201 204 208 210 216 223 232 237 246 249 258 264 268 268 270 271 272 271 272
21 24 28 30 36 53 72 91 122 129 116 109 141 166 165 171 163 169 156 150 175 180 187 188 192 196 199 201 204 212 216 228 237 243 253 261 264 267 268 271 272 274 274 272 271
28 33 34 37 42 50 66 103 116 123 118 125 134 152 165 169 180 178 169 167 167 173 178 181 190 195 196 202 207 221 221 230 239 255 256 270 268 270 270 271 277 278 277 277 271
23 25 28 32 49 58 64 82 92 91 95 194 185 158 159 156 155 174 171 163 175 170 176 178 190 192 193 201 212 221 232 236 246 255 257 268 268 270 271 278 280 282 278 277 273
16 20 23 33 43 49 58 64 59 58 59 110 151 161 168 169 158 171 174 171 174 170 179 189 189 192 196 208 216 220 234 242 251 257 266 267 268 269 280 283 280 277 275 278 274
18 21 23 30 37 44 45 52 55 56 68 83 96 139 171 175 176 175 177 172 170 169 169 181 190 197 203 211 220 225 243 258 261 261 266 266 263 275 278 272 277 279 274 276 278
28 30 35 36 38 44 53 66 56 73 64 84 90 94 125 142 159 167 171 174 176 167 187 193 199 205 208 217 233 238 253 263 268 267 259 268 270 269 275 274 275 277 280 275 277
41 46 46 46 51 59 68 65 64 67 78 82 85 98 108 113 138 149 156 165 171 173 183 189 215 213 221 227 232 240 245 244 248 257 263 271 265 273 272 275 277 276 279 278 278
51 49 46 48 56 64 66 60 78 76 76 83 84 92 96 104 127 131 151 166 173 181 187 192 207 212 222 234 238 246 248 247 251 267 272 268 275 284 272 281 272 277 284 285 284
46 42 38 47 56 61 61 65 66 72 72 75 79 92 103 113 119 132 149 162 171 187 197 200 208 223 228 238 244 245 237 254 263 261 266 270 272 270 283 287 290 288 286 288 286
6 18 20 35 43 47 58 61 63 67 68 75 83 90 97 110 118 138 157 164 186 193 206 208 218 229 233 235 236 246 253 257 253 253 257 271 273 269 267 282 287 290 286 289 292
307 319 336 350 9 20 41 44 44 49 54 61 70 80 90 105 113 123 141 164 182 194 204 220 221 234 243 248 248 249 249 247 253 262 264 267 274 278 269 271 278 287 291 293 292
282 282 298 300 312 325 324 345 356 11 7 29 46 44 52 57 75 130 163 191 209 225 225 233 250 259 268 264 263 257 255 256 260 264 258 259 272 277 274 277 285 294 298 296 295
275 275 280 284 286 280 282 292 292 298 297 298 293 287 264 258 273 238 256 266 273 262 263 266 261 254 255 263 264 262 260 257 256 264 265 262 273 271 282 286 290 295 294 294 293
272 268 267 272 277 278 280 277 276 279 280 279 273 267 270 275 278 263 265 269 277 273 274 267 265 266 271 271 269 267 264 259 257 260 260 272 266 275 283 285 291 292 292 293 297
265 265 268 269 271 270 274 268 268 273 268 271 270 272 266 267 264 270 269 273 273 278 272 278 279 278 280 277 272 272 268 264 260 263 266 272 276 278 282 285 290 293 293 294 296
266 266 264 266 266 267 267 266 267 267 268 269 267 271 272 272 272 274 271 274 274 271 271 274 278 284 280 286 284 277 270 265 267 267 267 268 273 276 280 284 286 290 293 293 295